Regional Weather Roundup
Issued by NWS Sterling, VA

Home | Current Version | Previous Version | Text Only | Print | Product List | Glossary Off
Versions: 1 2 3 4 5 6 7 8 9 10 11 12 13 14 15 16 17 18 19 20 21 22 23 24 25 26 27 28 29 30 31 32 33 34 35 36 37 38 39 40 41 42 43 44 45 46 47 48 49 50

000
ASUS41 KLWX 220610
RWRLWX

REGIONAL WEATHER ROUNDUP
NATIONAL WEATHER SERVICE BALTIMORE MD/WASHINGTON DC
200 AM EDT MON SEP 22 2014

Note: "FAIR" indicates few or no clouds below 12,000 feet
with no significant weather and/or obstructions to visibility.
 TC=TEMPERATURE CELSIUS

 * =Non NWS site. Station does not report precipitation (e.g. rain,
    snow, etc.), thunder, or fog.

DCZ001-MDZ009-015-VAZ040>042-051-053>054-220700-
WASHINGTON METRO

CITY           SKY/WX    TMP DP  RH WIND       PRES   REMARKS
WASHINGTON NAT PTCLDY    74  46  36 NW18G28   29.80R
DULLES         PTCLDY    67  47  48 NW10      29.83R
ANDREWS AFB    CLEAR     72  48  43 NW16G30   29.79R
QUANTICO       PTCLDY    69  51  52 NW8       29.81R
COLLEGE PARK*  CLEAR     72  46  40 W6        29.79R
LEESBURG*      CLEAR     68  50  52 NW10G17   29.84R
MANASSAS*      CLEAR     66  52  59 CALM      29.82R
GAITHERSBURG*  CLEAR     66  46  48 W10       29.85R

$$

MDZ006>007-011-014-220700-
BALTIMORE METRO

CITY           SKY/WX    TMP DP  RH WIND       PRES   REMARKS
BWI AIRPORT    PTCLDY    69  49  48 NW12      29.78R
MD SCIENCE CTR   N/A     72  48  42 MISG      29.78R
MARTIN STATE   PTCLDY    72  52  49 W10       29.77R
ANNAPOLIS      PTCLDY    72  53  51 W9        29.76R
FORT MEADE*    PTCLDY    63  54  72 W10       29.80R

$$

MDZ012-015-019>023-220700-
MARYLAND EASTERN SHORE

CITY           SKY/WX    TMP DP  RH WIND       PRES   REMARKS
OCEAN CITY     PTCLDY    73  66  78 W7        29.74R
SALISBURY      CLEAR     76  64  66 W9        29.75R
BAY BRIDGE AP*   N/A     72  50  46 NW12G18   29.76R
CAMBRIDGE*     PTCLDY    77  55  47 NW15G25   29.76R
EASTON*        PTCLDY    74  56  53 NW13      29.80R

$$

MDZ017>025-220700-
SOUTHERN MARYLAND

CITY           SKY/WX    TMP DP  RH WIND       PRES   REMARKS
PATUXENT RIVER PTCLDY    73  57  57 W12       29.78R
ST INIGOES     MOCLDY    74  54  49 W9        29.78R
LEONARDTOWN*   PTCLDY    72  55  56 W8        29.81R

$$

MDZ003>005-220700-
NORTH CENTRAL MARYLAND

CITY           SKY/WX    TMP DP  RH WIND       PRES   REMARKS
FREDERICK*     CLEAR     70  48  46 W13G20    29.84R
HAGERSTOWN APT CLEAR     63  47  55 W12       29.82R
WESTMINSTER*   CLEAR     66  52  59 W18       29.79R

$$

MDZ501>502-220700-
WESTERN MARYLAND

CITY           SKY/WX    TMP DP  RH WIND       PRES   REMARKS
OAKLAND*       CLOUDY    50  50 100 W8        29.91R
CUMBERLAND*    CLOUDY    63  46  55 W6        29.90S

$$

VAZ025>031-220700-
SHENANDOAH VALLEY

CITY           SKY/WX    TMP DP  RH WIND       PRES   REMARKS
WINCHESTER*    CLEAR     64  45  48 NW16G23   29.85R
STAUNTON*      CLEAR     63  45  51 W6        29.91S

$$

WVZ021-048>050-054>055-220700-
EASTERN WEST VIRGINIA PANHANDLE

CITY           SKY/WX    TMP DP  RH WIND       PRES   REMARKS
MARTINSBURG    CLEAR     66  44  45 W18G28    29.85R
PETERSBURG*    PTCLDY    64  44  48 W10       29.91R

$$

VAZ036>039-050-220700-
CENTRAL FOOTHILLS

CITY           SKY/WX    TMP DP  RH WIND       PRES   REMARKS
CHARLOTTESVILL PTCLDY    69  45  41 VRB7      29.86R
ORANGE*        CLEAR     66  48  52 SW8       29.85R

$$

VAZ055>057-220700-
NORTH AND CENTRAL PIEDMONT

CITY           SKY/WX    TMP DP  RH WIND       PRES   REMARKS
FREDERICKSBRG* PTCLDY    72  53  51 NW6       29.81R
STAFFORD*      PTCLDY    66  51  59 CALM      29.85R

$$

NCZ024-NYZ072-PAZ021-071-VAZ022-071-220700-
OTHER REGIONAL OBSERVATIONS

CITY           SKY/WX    TMP DP  RH WIND       PRES   REMARKS
NEW YORK CITY  MOCLDY    68  60  75 VRB7      29.69R
PHILADELPHIA   MOCLDY    71  61  70 W9        29.72R
PITTSBURGH     MOCLDY    54  50  86 NW14G24   29.92R
ROANOKE        PTCLDY    65  48  54 NW10      29.95R
RICHMOND       CLOUDY    77  61  57 W9        29.80R
RALEIGH        MOCLDY    70  67  90 CALM      29.88R

$$

ANZ530>537-220700-
MARINE OBSERVATIONS

STATION/POSITION TIME  TEMP    WIND        PRES
                       AIR SEA DIR/SP/G
                 (UTC) (F)     (DEG/KT/KT) (MB)
THOMAS PT LIGHT  0600   72 74  310/ 16/ 17 1008.6R
BALT KEY BRIDGE  0600   73     280/ 16/ 20 1008.0R
COVE POINT       0600   74     330/ 10/ 13 1008.1R
LEWISETTA        0600   76 74  320/  9/ 11 1008.2S
SOLOMONS ISLAND  0600      76                N/A
PINEY POINT      0600          340/ 20/ 22   N/A

$$



USA.gov is the U.S. government's official web portal to all federal, state and local government web resources and services.